This is the latest recevied weather packets stored in our database for station/object KK6LVQ-13. If no packets are shown the sender has not sent any weather packets the latest 10 day(s).
| Time | Temp. | Humidity | Pressure | Rain* | Wind** | Luminosity | Snow |
|---|---|---|---|---|---|---|---|
| 1778279628 | 20.56° C | 68% | 1021.5 hPa | 0 mm | - | 651 W/m² | - |
| 1778279325 | 20.56° C | 68% | 1021.8 hPa | 0 mm | - | 662 W/m² | - |
| 1778279022 | 20.56° C | 68% | 1021.6 hPa | 0 mm | - | 671 W/m² | - |
| 1778278719 | 20.56° C | 68% | 1021.5 hPa | 0 mm | - | 681 W/m² | - |
| 1778278414 | 20° C | 69% | 1021.8 hPa | 0 mm | - | 690 W/m² | - |
| 1778278111 | 20° C | 70% | 1021.8 hPa | 0 mm | - | 700 W/m² | - |
| 1778277807 | 20° C | 70% | 1021.9 hPa | 0 mm | - | 707 W/m² | - |
| 1778277504 | 20° C | 70% | 1022 hPa | 0 mm | - | 717 W/m² | - |
| 1778277201 | 20° C | 70% | 1022.1 hPa | 0 mm | - | 725 W/m² | - |
| 1778276898 | 19.44° C | 71% | 1022 hPa | 0 mm | - | 733 W/m² | - |
| 1778276595 | 19.44° C | 71% | 1022.1 hPa | 0 mm | - | 740 W/m² | - |
| 1778276291 | 19.44° C | 71% | 1022.1 hPa | 0 mm | - | 747 W/m² | - |
| 1778275988 | 20° C | 72% | 1022.2 hPa | 0 mm | - | 754 W/m² | - |
| 1778275685 | 19.44° C | 71% | 1022.6 hPa | 0 mm | - | 761 W/m² | - |
| 1778275381 | 19.44° C | 72% | 1022.6 hPa | 0 mm | - | 767 W/m² | - |
| 1778275076 | 20° C | 71% | 1022.6 hPa | 0 mm | - | 773 W/m² | - |
| 1778274772 | 20° C | 71% | 1022.4 hPa | 0 mm | - | 779 W/m² | - |
| 1778274470 | 20° C | 70% | 1022.8 hPa | 0 mm | - | 781 W/m² | - |
| 1778274167 | 20° C | 71% | 1022.7 hPa | 0 mm | - | 781 W/m² | - |
| 1778273864 | 20° C | 71% | 1022.4 hPa | 0 mm | - | 789 W/m² | - |
| 1778273560 | 19.44° C | 70% | 1022.9 hPa | 0 mm | - | 793 W/m² | - |
| 1778273257 | 19.44° C | 71% | 1022.7 hPa | 0 mm | - | 796 W/m² | - |
| 1778272953 | 19.44° C | 71% | 1023 hPa | 0 mm | - | 799 W/m² | - |
| 1778272649 | 19.44° C | 72% | 1023.1 hPa | 0 mm | - | 801 W/m² | - |
| 1778272346 | 18.89° C | 73% | 1022.9 hPa | 0 mm | - | 804 W/m² | - |
* Rain latest hour (hover to see other rain measurements)
** Current wind speed in m/s (hover to see current wind gust speed)